Regional Weather Roundup
Issued by NWS

Home | Current Version | Previous Version | Graphics & Text | Print | Product List | Glossary On
Versions: 1 2 3 4 5 6 7 8 9 10 11 12 13 14 15 16 17 18 19 20 21 22 23 24 25 26 27 28 29 30 31 32 33 34 35 36 37 38 39 40 41 42 43 44 45 46 47 48 49 50
000
ASUS45 KBOU 140407
RWRCO

WEATHER ROUNDUP FOR COLORADO
NATIONAL WEATHER SERVICE DENVER/BOULDER CO
1000 PM MDT SAT SEP 13 2014

NOTE: "FAIR" INDICATES FEW OR NO CLOUDS BELOW 12000 FEET WITH NO
SIGNIFICANT WEATHER AND/OR OBSTRUCTIONS TO VISIBILITY.

COZ001>005-013-030-031-140500-
...NORTHWEST COLORADO...

CITY           SKY/WX    TMP DP  RH WIND       PRES   REMARKS
CRAIG          MOCLDY    53  38  56 CALM      30.16S
HAYDEN         MOCLDY    55  30  38 CALM      30.18S
MEEKER         PTCLDY    51  38  60 N6        30.19R
MOUNT WERNER   NOT AVBL
STEAMBOAT SPGS MOCLDY    56  32  40 E8        30.21S
WALDEN         MOCLDY    41  30  65 SE5       30.28F
$$

COZ006>008-011-140500-
...WEST CENTRAL VALLEYS...

CITY           SKY/WX    TMP DP  RH WIND       PRES   REMARKS
GRAND JUNCTION PTCLDY    62  41  46 E5        30.08R
MONTROSE       CLEAR     61  39  44 SE9       30.18R
EAGLE          CLEAR     54  37  54 E7        30.24S
RIFLE          CLEAR     57  35  43 SE7       30.14R
DELTA          CLEAR     67  34  29 E10       30.13R
NUCLA          CLEAR     63  34  34 E10       30.20S
$$

COZ017>023-064>068-140500-
...SOUTHWEST COLORADO...

CITY           SKY/WX    TMP DP  RH WIND       PRES   REMARKS
DURANGO        CLEAR     59  34  39 N6        30.23R
CORTEZ         CLEAR     55  39  54 NE8       30.18R
PAGOSA SPRINGS NOT AVBL
TELLURIDE      NOT AVBL
WOLF CREEK PAS MOCLDY    43  30  61 SW6       30.59R
$$

COZ009-010-012-014-032>034-037-058>063-140500-
...CENTRAL COLORADO...

CITY           SKY/WX    TMP DP  RH WIND       PRES   REMARKS
ASPEN          CLEAR     51  30  44 SW10      30.31R
BUENA VISTA    CLEAR     54  24  31 W5        30.31S
COPPER MTN     CLEAR     46  14  27 SW12G20   30.56F
BERTHOUD PASS  FAIR      37  36  93 W16       30.59F
COTTONWOOD PAS CLEAR     59  21  23 W14       30.43S
GUNNISON       PTCLDY    52  30  43 N5        30.33R
KREMMLING      PTCLDY    50  28  43 NE3       30.28S
LEADVILLE      CLEAR     45  20  36 N5        30.42F
MONARCH PASS   PTCLDY    45  21  39 W14       30.67F
SALIDA         CLEAR     60  32  34 S8        30.37R
SUNLIGHT       CLEAR     46  21  36 CALM      30.50S
WILKERSON PASS NOT AVBL
$$

COZ069>075-140500-
...SAN LUIS VALLEY/SANGRE DE CRISTO MOUNTAINS...

CITY           SKY/WX    TMP DP  RH WIND       PRES   REMARKS
ALAMOSA        MOCLDY    58  36  43 W7        30.28R
LA VETA PASS   NOT AVBL
SAGUACHE       NOT AVBL
$$

COZ035-036-038>040-140500-
...NORTHERN COLORADO FRONT RANGE...

CITY           SKY/WX    TMP DP  RH WIND       PRES   REMARKS
DENVER INTL AP CLEAR     53  43  68 SE10      30.16S
DMNS CITY PARK   N/A     58  40  50 NW6       30.17S
AURORA         CLEAR     54  43  65 SW10      30.18S
FRONT RANGE AP CLEAR     54  46  76 SE12      30.18F
ERIE MUNI ARPT CLEAR     53  44  70 CALM      30.18S
BOULDER MUN AP CLEAR     54  45  71 CALM      30.19F
CENTENNIAL     CLEAR     57  40  52 W8        30.19R
BROOMFIELD     CLEAR     59  41  51 NW9       30.20S
FORT COLLINS   CLEAR     57  43  58 SW3       30.20S
LONGMONT       CLEAR     53  45  75 NW6       30.20F
$$

COZ041-046-047-076>085-087-088-140500-
...PIKES PEAK/PALMER DIVIDE AND SOUTHERN FOOTHILLS...

CITY           SKY/WX    TMP DP  RH WIND       PRES   REMARKS
COLO. SPRINGS  CLEAR     55  37  50 E9        30.24S
A. F. ACADEMY  CLEAR     56  37  49 E2        30.25S
ELLICOTT       NOT AVBL
FALCON         CLEAR     50  37  60 S3        30.28S
FORT CARSON    CLEAR     57  38  48 W5        30.22R
LIMON          CLEAR     48  42  80 SE6       30.20R
MONUMENT HILL  CLEAR     46  37  71 S10       30.26S
TRINIDAD       CLEAR     62  49  62 NW6       30.16S
$$

COZ042>045-048>051-090-091-140500-
...NORTHEAST COLORADO...

CITY           SKY/WX    TMP DP  RH WIND       PRES   REMARKS
GREELEY ARPT   CLEAR     52  39  62 E5        30.16F
AKRON          CLEAR     52  45  77 SE12      30.17S
BURLINGTON     CLEAR     53  49  86 SE9       30.17R
WRAY           CLEAR     51  47  86 E5        30.16S
STERLING       CLEAR     54  48  82 S3        30.13F
HOLYOKE        CLEAR     46  43  87 E7        30.16S
FORT MORGAN    CLEAR     53  45  74 E8        30.16F
$$

COZ086-089-092>099-140500-
...SOUTHEAST COLORADO...

CITY           SKY/WX    TMP DP  RH WIND       PRES   REMARKS
PUEBLO         CLEAR     58  40  51 N10       30.15R
LA JUNTA       CLEAR     61  53  75 E8        30.09S
LAMAR          CLEAR     56  53  90 E10       30.10R
SPRINGFIELD      N/A     56  53  90 S10       30.15R
$$



USA.gov is the U.S. government's official web portal to all federal, state and local government web resources and services.